Kosmos-2216

operational
NORAD ID: 22187 Int'l Des: 1992-068 Owner: VKS Country: RU
LEOCIRCULARPOLAR

关于 Kosmos-2216

正在加载描述...

实时位置

正在加载3D地球...

即将过境

高度历史

Altitude vs Time

uPlot chart will show altitude changes over time

两行轨道根数

1 22187U 92068F 26063.03075248 .00000008 00000-0 -12924-4 0 9992
2 22187 82.5933 50.8039 0005920 27.9563 332.1845 12.62583082537621
Epoch: Mar 4, 2026 • Age: 11 hours

当前状态

高度 1421.0 km
速度 7.15 km/s
星下点 -8.93°S, 99.2°W
发射日期 Oct 20, 1992
运行时间 33.3 years
类型 other

技术详情

分类 Payload
质量 225.00 kg
干质量 225.00 kg
总质量 225.00 kg
长度 1.60 m
直径 0.80 m
跨度 7.00 m
形状 Cyl + Ant
制造商 NPOPM
平台类型 Strela-3
阶段状态 In Orbit
所有者/国家 VKS/RU

大型星座

Loading constellations...